Wind_Speed
23 21 21 19 17 16 15 14 12 14 13 15 16 17 18 19 21 24 26 30 32 34 36 36 33 27 18 10 16 2 4 7 7 8 14 14 15 15 19 18 20 23 19 21 22 20 22
24 24 23 22 19 18 16 15 14 15 14 16 16 17 19 20 22 25 27 30 33 34 36 32 30 18 13 17 3 1 4 8 10 13 15 16 13 15 18 18 18 19 22 23 23 23 23
25 26 24 24 21 20 18 16 16 16 15 15 16 17 18 19 22 25 27 30 34 35 31 28 27 14 9 17 4 7 8 11 13 15 14 16 14 12 12 17 16 13 17 20 21 24 25
27 27 25 25 23 22 20 18 18 16 16 16 16 17 18 19 22 25 28 31 36 34 27 27 22 8 7 3 8 4 8 10 11 12 14 14 15 14 16 15 19 22 21 19 21 24 23
29 27 26 26 24 22 21 20 19 17 16 16 16 17 18 20 22 26 29 32 37 30 28 28 13 9 11 1 6 6 9 9 4 10 12 10 9 15 15 15 17 18 19 25 24 20 19
32 29 28 27 25 23 22 21 19 17 15 15 15 17 18 18 21 24 29 30 32 29 15 15 13 11 8 7 18 19 16 15 11 10 9 10 8 13 14 14 14 17 20 22 21 20 21
33 30 31 27 26 24 23 21 19 16 14 14 14 15 17 18 20 22 26 21 12 9 15 12 22 27 23 20 14 8 4 7 9 9 11 12 14 15 16 17 19 22 23 26 24 22 22
35 33 32 29 27 25 23 23 20 16 15 14 14 14 15 17 18 20 15 10 12 11 15 22 24 21 21 6 7 9 4 6 4 10 14 14 17 21 21 19 19 20 23 24 23 22 20
38 34 32 31 29 25 24 23 21 19 16 15 14 13 12 14 16 12 9 7 13 14 8 14 10 7 5 8 7 2 4 5 8 12 13 15 16 17 14 15 19 19 20 22 25 24 22
39 34 33 34 29 27 25 23 22 21 18 16 14 13 10 11 9 7 8 10 13 9 6 3 5 5 5 5 6 5 1 4 8 12 15 12 13 10 12 17 16 19 18 20 21 18 19
39 36 35 34 31 29 28 23 24 23 19 17 15 14 9 4 9 7 7 10 11 6 6 5 7 5 2 7 7 12 6 4 12 16 14 18 18 20 22 20 15 19 17 15 21 19 20
40 38 38 35 32 31 30 25 26 25 21 18 16 14 10 6 5 11 6 8 8 3 7 4 6 5 8 12 12 8 18 13 14 16 18 22 21 20 21 21 10 13 15 14 19 15 17
42 41 38 37 33 34 30 27 27 26 23 21 19 17 17 9 2 0 2 4 3 5 9 2 3 4 8 11 14 21 16 14 12 17 15 16 18 21 11 9 8 12 14 7 7 7 13
46 42 40 38 37 34 31 29 28 26 25 23 21 19 21 21 14 7 6 2 7 7 12 15 11 14 16 16 21 20 11 15 11 5 10 12 14 13 13 6 7 6 6 5 7 11 14
46 43 41 39 38 34 33 29 29 27 25 24 22 20 10 22 18 15 4 5 6 8 8 11 13 17 17 13 3 13 14 15 6 3 4 6 7 4 4 2 1 2 4 1 4 14 10
45 43 42 41 39 36 34 31 31 29 26 29 19 12 5 14 17 12 2 6 7 14 10 8 7 3 4 8 2 6 6 4 3 2 2 1 9 8 5 2 9 12 8 6 3 5 9
45 42 42 40 40 38 35 34 33 30 27 29 12 3 5 17 16 1 5 8 9 14 8 7 8 7 5 4 11 12 5 1 5 3 4 0 5 7 15 7 11 9 10 2 6 7 5
43 44 42 40 40 38 36 36 35 31 30 30 6 3 13 22 3 2 5 6 2 8 2 3 3 6 5 3 4 6 8 5 3 4 4 1 4 9 17 19 20 18 18 17 7 6 6
38 38 38 39 39 39 40 40 39 35 28 13 4 3 2 2 4 5 3 4 5 7 8 7 8 9 6 6 5 11 8 5 6 6 1 4 3 6 9 2 5 4 9 8 8 11 16
34 32 36 33 35 39 43 45 42 36 32 21 4 4 1 2 1 3 7 5 5 5 3 5 3 5 4 6 10 4 5 8 5 2 8 3 5 10 11 16 15 16 18 17 15 11 15
27 31 25 29 28 30 34 44 29 22 37 12 1 3 1 6 6 4 7 4 5 6 7 8 4 10 7 5 8 7 8 6 8 9 5 4 8 12 18 18 17 19 19 18 19 20 20
26 31 33 35 28 29 21 22 19 34 40 7 5 3 2 2 5 11 7 6 8 5 8 5 6 9 14 5 9 3 7 8 9 9 15 13 14 15 18 16 16 20 19 21 22 24 24
28 29 29 25 27 25 21 22 29 41 35 5 4 2 2 7 4 5 4 10 9 8 7 5 11 4 5 7 9 11 10 10 11 11 12 14 11 12 17 16 17 16 13 20 24 16 16
22 20 19 21 21 22 27 31 38 40 28 12 7 5 3 3 4 5 3 9 7 9 4 3 2 1 1 2 5 7 10 13 15 16 14 16 15 11 13 16 17 15 20 21 9 11 13
23 30 34 33 34 35 31 28 27 20 12 21 12 4 2 3 4 7 9 5 8 6 3 4 6 7 3 3 2 5 7 13 20 21 18 16 14 11 13 15 19 24 19 6 11 15 13
41 39 36 31 29 28 28 25 24 22 24 25 18 11 3 4 6 8 9 8 5 6 7 6 10 7 3 1 2 4 4 9 6 7 19 19 16 11 13 15 17 19 13 7 13 12 13
39 33 32 28 27 26 25 26 27 22 17 13 7 3 3 1 6 5 4 7 4 6 6 10 7 2 2 2 5 8 12 15 16 18 16 11 7 12 12 10 11 5 14 11 5 8 17
36 35 35 32 29 27 25 24 22 19 18 10 8 7 3 2 7 7 5 4 4 1 3 6 6 4 4 4 5 8 9 12 13 12 10 12 9 10 10 12 10 12 8 3 5 9 13
37 37 35 32 27 25 23 21 19 17 15 9 8 5 11 6 4 5 7 8 11 10 3 4 3 1 4 4 3 4 7 7 10 9 12 11 9 7 7 8 14 8 5 9 4 5 10
Wind_Direction
235 237 241 243 249 254 261 270 280 289 300 308 315 318 324 326 328 330 329 329 329 331 330 327 327 338 346 301 295 89 195 217 227 246 259 261 252 257 261 266 266 272 274 277 275 280 273
235 239 241 244 247 253 261 268 276 283 296 303 310 314 318 323 326 327 327 327 325 325 325 323 323 336 309 289 317 247 253 238 244 241 245 254 265 278 283 289 283 288 292 291 292 294 287
239 242 243 247 247 251 258 264 270 281 290 297 305 308 312 320 322 323 324 324 321 320 318 316 318 327 280 266 287 288 273 256 259 247 257 258 269 264 285 291 277 293 291 286 278 274 270
235 242 244 247 248 252 254 260 268 277 287 295 302 304 309 317 319 320 322 322 317 314 309 308 308 300 263 327 282 285 310 275 240 257 267 276 285 284 268 277 282 278 275 275 273 267 266
234 238 240 245 247 249 256 260 267 274 284 291 298 301 307 316 321 322 323 323 313 307 297 294 297 213 279 138 222 323 290 286 326 272 258 267 284 263 273 268 274 263 263 269 271 275 296
233 234 239 242 246 247 253 258 263 271 278 286 294 299 308 315 320 325 326 324 316 304 303 262 255 275 232 318 320 301 276 250 256 281 253 222 255 258 252 254 261 281 289 291 290 297 305
232 234 237 238 243 246 251 256 260 266 271 280 288 297 305 315 321 329 328 329 2 326 351 288 279 286 280 297 302 232 297 258 240 229 250 261 254 253 265 273 290 301 296 291 290 295 297
232 232 236 239 239 244 249 256 256 260 266 273 279 289 297 311 323 325 322 354 11 315 298 276 264 263 265 288 272 216 223 241 180 232 241 234 240 253 262 272 282 278 283 284 287 293 286
232 231 235 238 239 241 245 252 255 256 260 267 273 280 290 308 324 312 322 10 335 339 275 297 248 234 221 208 273 173 230 318 276 276 273 267 273 299 282 256 275 272 275 287 288 297 287
232 231 234 236 237 240 242 246 250 252 254 260 267 271 278 307 315 337 323 339 338 342 289 195 176 195 175 236 250 226 193 335 301 293 291 284 282 296 296 288 288 278 282 298 298 302 290
231 233 234 235 237 240 243 240 248 250 250 253 255 257 260 254 317 293 314 328 324 290 316 103 122 109 208 241 323 172 197 235 292 290 290 268 284 286 281 273 271 285 306 317 308 290 293
231 233 234 234 236 240 242 243 247 249 252 252 251 247 238 242 243 261 304 315 304 247 253 234 130 188 209 227 245 283 302 292 278 261 267 271 268 274 274 277 284 297 299 293 287 273 268
231 231 235 236 236 239 242 243 247 249 250 250 244 239 224 190 185 33 188 274 256 215 313 305 272 203 274 284 281 303 301 299 285 288 273 296 304 292 325 309 282 262 261 292 276 232 246
231 232 234 236 237 238 241 242 246 247 248 247 243 239 221 214 197 182 126 145 233 248 257 301 299 287 268 278 287 284 280 280 281 349 287 279 304 12 10 32 334 320 340 218 279 284 295
232 232 234 236 238 238 240 241 244 243 245 246 245 205 203 205 197 173 139 208 219 206 262 297 303 283 283 281 292 304 272 268 42 71 248 320 252 91 27 45 3 33 229 326 270 260 265
233 234 236 237 239 239 240 241 242 240 246 247 197 170 188 194 178 134 150 233 230 236 289 267 255 233 268 285 332 256 267 46 65 0 290 36 280 272 264 4 255 249 280 257 210 256 247
235 237 239 240 241 240 240 240 240 242 251 239 162 151 154 170 146 92 206 221 244 231 204 220 235 245 244 266 241 255 258 158 199 194 320 265 240 275 316 246 263 264 259 298 313 268 280
235 236 240 242 243 242 241 241 240 245 254 179 136 183 152 148 136 204 224 194 162 207 156 198 204 226 235 248 232 242 238 236 181 183 222 90 293 270 273 281 280 286 282 279 262 282 271
234 237 241 243 245 244 243 239 245 247 216 156 121 113 127 169 192 200 239 257 234 196 206 188 212 217 215 203 231 240 241 148 174 212 260 137 233 303 293 207 4 332 332 262 280 284 274
233 240 246 249 249 252 245 243 242 244 198 158 138 138 129 187 1 216 178 212 209 233 230 197 209 154 178 217 226 259 222 186 190 208 75 11 253 248 260 281 312 295 285 280 284 279 282
234 245 251 247 251 260 260 252 243 224 191 155 121 185 209 181 210 189 182 172 183 191 219 213 204 208 190 223 223 222 219 193 227 168 201 228 260 260 269 280 289 288 286 289 284 280 273
241 247 254 257 263 255 233 222 210 192 177 111 136 151 80 103 114 179 180 199 193 167 173 199 230 212 223 211 210 196 240 237 251 214 227 224 254 267 270 271 276 277 277 271 272 273 276
251 251 255 250 238 220 212 208 194 185 168 124 132 85 133 148 152 158 204 208 206 154 204 214 213 205 237 236 273 277 285 273 266 262 258 263 264 259 267 279 284 280 267 272 275 297 294
238 224 213 210 190 175 169 170 171 171 182 124 154 134 110 166 171 186 196 190 188 181 152 178 239 276 22 351 321 294 277 273 269 262 260 263 260 262 268 276 264 270 269 281 343 291 350
178 155 151 152 150 152 150 151 155 153 133 136 136 110 141 137 161 168 163 158 142 159 173 183 207 90 150 53 347 293 263 249 248 244 239 238 249 258 262 260 277 284 293 0 328 304 51
137 133 129 130 131 131 128 123 117 116 126 119 115 134 168 132 191 167 171 179 181 187 195 157 74 68 62 298 180 239 256 310 289 318 222 226 216 229 247 258 267 272 22 334 315 281 12
136 136 133 131 130 127 125 123 121 123 122 110 99 41 221 166 65 32 162 196 210 194 203 185 133 131 205 224 243 259 267 272 279 278 275 272 260 229 244 254 272 333 334 333 302 330 331
131 128 126 126 125 123 120 121 124 121 122 118 85 48 0 96 55 42 19 45 32 26 201 114 145 199 182 225 264 278 271 277 290 290 291 286 297 291 269 260 282 15 12 17 309 309 312
124 122 123 124 124 119 116 116 114 108 104 122 109 88 49 67 76 59 50 37 26 29 349 121 221 116 206 219 255 314 307 305 295 289 293 290 288 300 283 282 296 326 168 251 21 302 302
Height
806 807 809 810 811 812 812 813 812 814 813 812 811 811 808 805 802 798 794 789 784 779 774 769 764 760 756 750 739 735 737 738 738 739 738 735 734 732 735 725 719 717 710 702 698 697 698
802 804 805 807 807 810 810 811 810 811 811 811 810 809 807 803 800 797 792 787 782 777 772 767 762 760 760 754 735 735 736 737 737 736 734 732 729 724 725 726 724 715 711 706 699 701 698
799 801 802 805 804 806 807 807 808 808 808 808 807 807 806 801 798 794 790 785 778 773 768 764 761 759 754 742 734 734 734 733 732 730 727 726 724 725 722 726 712 713 722 711 704 699 694
793 798 799 802 802 803 804 804 805 804 806 806 806 805 804 800 796 792 787 781 773 767 764 760 759 759 744 734 734 732 732 727 728 729 729 728 726 724 725 720 721 725 720 724 699 687 677
787 792 794 797 798 798 801 802 802 802 803 803 804 803 802 799 795 790 784 777 767 760 758 756 757 753 743 733 731 731 731 727 725 727 726 726 727 727 725 730 729 716 722 709 694 671 672
781 785 789 792 795 794 797 798 798 800 799 800 801 801 800 796 793 789 782 773 759 753 750 749 751 752 733 730 729 729 727 726 726 725 722 725 727 728 724 728 739 720 711 701 698 685 680
775 780 785 786 790 791 793 795 795 796 796 797 799 799 798 796 793 788 780 771 766 755 756 759 748 742 732 729 728 723 723 723 722 725 734 722 731 730 714 707 705 708 710 708 694 684 688
770 773 780 781 784 786 788 792 791 792 794 794 796 796 796 794 792 788 783 780 782 783 762 746 737 734 731 733 733 721 723 722 721 729 717 722 727 710 704 703 707 710 711 707 691 683 688
764 766 773 777 779 781 783 787 788 789 791 792 793 794 794 793 790 788 785 784 783 779 769 731 720 725 728 733 726 717 719 714 718 718 713 716 704 695 700 705 707 710 711 705 702 688 679
757 760 767 772 774 777 779 780 783 785 787 789 791 792 792 792 792 789 784 784 783 781 771 730 726 724 728 729 728 716 717 721 721 721 712 712 698 703 708 710 707 716 699 698 700 705 703
750 755 761 765 768 771 775 773 779 782 783 785 787 789 789 788 791 788 789 786 783 781 780 719 726 725 722 729 721 716 713 715 727 723 721 716 707 706 706 700 693 705 701 709 711 712 709
743 749 755 758 762 766 769 769 774 778 780 782 785 788 788 789 789 789 788 786 784 784 778 724 719 725 728 722 718 708 710 706 708 718 718 713 701 702 698 692 696 699 709 711 712 720 726
735 742 749 753 755 760 762 765 770 773 776 779 781 782 785 786 786 787 788 787 789 783 726 722 723 719 722 722 717 715 716 720 725 727 720 707 705 692 692 703 698 706 719 738 731 716 717
729 734 741 745 749 752 756 759 764 768 771 774 776 777 777 781 782 786 789 792 797 762 747 719 727 725 731 722 720 718 724 726 710 722 732 732 728 713 706 715 722 722 724 742 745 726 712
721 727 733 738 742 745 750 752 758 762 766 768 771 770 773 775 778 783 788 791 768 763 748 747 738 734 729 724 733 728 724 722 731 736 743 740 728 713 716 720 725 725 737 729 751 735 737
713 720 725 730 735 738 742 746 751 755 759 762 763 767 770 771 775 781 789 774 766 754 751 752 759 753 755 745 752 740 731 736 743 744 745 746 749 723 719 726 724 728 722 740 751 747 734
705 712 718 722 727 731 734 738 743 749 751 752 757 765 769 771 776 783 775 769 759 753 757 762 756 758 757 758 752 744 747 740 748 749 748 751 754 739 733 734 731 729 736 744 745 736 736
697 704 709 714 719 724 728 732 737 742 743 748 755 760 769 772 778 779 768 764 761 757 765 765 764 760 759 758 759 752 747 747 748 748 750 755 755 747 736 729 725 728 728 730 747 743 747
690 696 702 706 711 716 720 724 727 733 732 742 752 764 769 770 768 773 773 766 765 764 761 763 762 760 760 763 765 758 750 749 753 751 750 754 755 756 729 719 728 731 727 730 737 740 745
681 688 694 698 702 707 710 713 717 721 726 732 750 759 768 768 770 759 764 765 764 764 763 761 763 763 766 763 762 760 759 756 757 756 766 765 759 760 754 740 741 746 740 739 743 754 750
674 682 686 690 695 695 702 702 707 712 719 728 740 743 746 757 760 762 759 759 758 761 766 763 765 760 758 761 758 755 753 762 759 761 764 766 763 758 750 747 746 745 744 745 747 742 744
670 677 682 684 687 694 694 698 703 708 714 723 738 745 749 753 751 757 761 756 754 758 760 760 757 756 754 757 750 758 753 759 756 752 755 756 761 758 763 752 752 750 746 740 734 726 720
666 671 675 677 684 687 688 692 696 702 711 723 733 738 733 749 754 754 751 746 747 752 756 756 757 759 756 757 754 753 751 751 750 751 754 753 754 757 755 749 747 750 744 731 719 715 714
666 669 670 677 681 683 687 689 699 705 706 711 722 730 736 741 744 745 747 748 749 751 754 754 757 761 759 756 756 755 754 754 754 753 752 755 755 757 759 752 761 732 721 712 715 718 716
664 666 673 679 683 684 691 698 703 706 708 711 721 725 732 733 736 740 741 744 748 752 756 754 751 757 756 759 765 762 751 747 742 740 743 746 751 757 759 747 736 727 716 730 728 726 744
668 671 679 687 691 694 698 703 705 707 714 716 721 725 728 727 730 729 733 738 741 745 747 746 754 758 759 763 766 771 757 736 736 725 723 729 736 750 752 754 747 722 732 736 725 728 743
671 677 681 691 698 700 703 704 705 712 717 720 724 726 727 725 724 722 726 730 730 732 737 741 752 761 761 766 769 763 755 742 742 737 732 728 729 746 750 753 739 738 737 730 738 744 745
677 680 683 697 702 704 706 706 709 713 718 720 725 728 729 724 733 734 737 736 736 738 740 745 755 757 760 767 762 754 746 736 734 730 736 737 742 742 737 745 751 729 735 750 747 742 745
681 685 691 697 704 707 708 711 712 716 719 724 728 731 727 727 739 741 744 745 746 747 745 747 750 752 756 758 755 755 751 747 743 749 730 738 736 743 745 736 726 726 743 739 739 745 744